Year,Month,Day,Hour,Minute,Value (Times are PST for temperature in C)
2010,04,19,00,00,9.40
2010,04,19,00,01,9.40
2010,04,19,00,02,9.40
2010,04,19,00,03,9.50
2010,04,19,00,04,9.40
2010,04,19,00,05,9.40
2010,04,19,00,06,9.40
2010,04,19,00,07,9.40
2010,04,19,00,08,9.40
2010,04,19,00,09,9.40
2010,04,19,00,10,9.40
2010,04,19,00,11,9.40
2010,04,19,00,12,9.40
2010,04,19,00,13,9.40
2010,04,19,00,14,9.40
2010,04,19,00,15,9.40
2010,04,19,00,16,9.40
2010,04,19,00,17,9.40
2010,04,19,00,18,9.40
2010,04,19,00,19,9.40
2010,04,19,00,20,9.40
2010,04,19,00,21,9.30
2010,04,19,00,22,9.30
2010,04,19,00,23,9.30
2010,04,19,00,24,9.30
2010,04,19,00,25,9.30
2010,04,19,00,26,9.30
2010,04,19,00,27,9.30
2010,04,19,00,28,9.30
2010,04,19,00,29,9.30
2010,04,19,00,30,9.30
2010,04,19,00,31,9.30
2010,04,19,00,32,9.30
2010,04,19,00,33,9.30
2010,04,19,00,34,9.30
2010,04,19,00,35,9.30
2010,04,19,00,36,9.30
2010,04,19,00,37,9.30
2010,04,19,00,38,9.30
2010,04,19,00,39,9.30
2010,04,19,00,40,9.30
2010,04,19,00,41,9.30
2010,04,19,00,42,9.30
2010,04,19,00,43,9.30
2010,04,19,00,44,9.30
2010,04,19,00,45,9.30
2010,04,19,00,46,9.30
2010,04,19,00,47,9.30
2010,04,19,00,48,9.30
2010,04,19,00,49,9.30
2010,04,19,00,50,9.30
2010,04,19,00,51,9.30
2010,04,19,00,52,9.30
2010,04,19,00,53,9.30
2010,04,19,00,54,9.30
2010,04,19,00,55,9.30
2010,04,19,00,56,9.30
2010,04,19,00,57,9.30
2010,04,19,00,58,9.30
2010,04,19,00,59,9.30
2010,04,19,01,00,9.30
2010,04,19,01,01,9.30
2010,04,19,01,02,9.30
2010,04,19,01,03,9.30
2010,04,19,01,04,9.30
2010,04,19,01,05,9.30
2010,04,19,01,06,9.30
2010,04,19,01,07,9.30
2010,04,19,01,08,9.30
2010,04,19,01,09,9.30
2010,04,19,01,10,9.30
2010,04,19,01,11,9.30
2010,04,19,01,12,9.30
2010,04,19,01,13,9.30
2010,04,19,01,14,9.30
2010,04,19,01,15,9.30
2010,04,19,01,16,9.30
2010,04,19,01,17,9.30
2010,04,19,01,18,9.30
2010,04,19,01,19,9.30
2010,04,19,01,20,9.30
2010,04,19,01,21,9.30
2010,04,19,01,22,9.30
2010,04,19,01,23,9.30
2010,04,19,01,24,9.30
2010,04,19,01,25,9.30
2010,04,19,01,26,9.30
2010,04,19,01,27,9.30
2010,04,19,01,28,9.30
2010,04,19,01,29,9.30
2010,04,19,01,30,9.30
2010,04,19,01,31,9.30
2010,04,19,01,32,9.20
2010,04,19,01,33,9.20
2010,04,19,01,34,9.20
2010,04,19,01,35,9.20
2010,04,19,01,36,9.20
2010,04,19,01,37,9.20
2010,04,19,01,38,9.20
2010,04,19,01,39,9.20
2010,04,19,01,40,9.20
2010,04,19,01,41,9.20
2010,04,19,01,42,9.20
2010,04,19,01,43,9.20
2010,04,19,01,44,9.20
2010,04,19,01,45,9.20
2010,04,19,01,46,9.20
2010,04,19,01,47,9.20
2010,04,19,01,48,9.20
2010,04,19,01,49,9.20
2010,04,19,01,50,9.20
2010,04,19,01,51,9.20
2010,04,19,01,52,9.20
2010,04,19,01,53,9.20
2010,04,19,01,54,9.20
2010,04,19,01,55,9.10
2010,04,19,01,56,9.10
2010,04,19,01,57,9.10
2010,04,19,01,58,9.10
2010,04,19,01,59,9.10
2010,04,19,02,00,9.10
2010,04,19,02,01,9.10
2010,04,19,02,02,9.10
2010,04,19,02,03,9.10
2010,04,19,02,04,9.10
2010,04,19,02,05,9.10
2010,04,19,02,06,9.10
2010,04,19,02,07,9.10
2010,04,19,02,08,9.00
2010,04,19,02,09,9.00
2010,04,19,02,10,9.00
2010,04,19,02,11,9.00
2010,04,19,02,12,9.00
2010,04,19,02,13,9.00
2010,04,19,02,14,9.00
2010,04,19,02,15,8.90
2010,04,19,02,16,8.90
2010,04,19,02,17,8.90
2010,04,19,02,18,8.90
2010,04,19,02,19,8.90
2010,04,19,02,20,8.90
2010,04,19,02,21,8.90
2010,04,19,02,22,8.90
2010,04,19,02,23,8.90
2010,04,19,02,24,8.90
2010,04,19,02,25,8.90
2010,04,19,02,26,8.80
2010,04,19,02,27,8.80
2010,04,19,02,28,8.80
2010,04,19,02,29,8.80
2010,04,19,02,30,8.80
2010,04,19,02,31,8.80
2010,04,19,02,32,8.80
2010,04,19,02,33,8.80
2010,04,19,02,34,8.80
2010,04,19,02,35,8.80
2010,04,19,02,36,8.80
2010,04,19,02,37,8.80
2010,04,19,02,38,8.80
2010,04,19,02,39,8.80
2010,04,19,02,40,8.80
2010,04,19,02,41,8.80
2010,04,19,02,42,8.80
2010,04,19,02,43,8.80
2010,04,19,02,44,8.80
2010,04,19,02,45,8.80
2010,04,19,02,46,8.70
2010,04,19,02,47,8.70
2010,04,19,02,48,8.70
2010,04,19,02,49,8.70
2010,04,19,02,50,8.70
2010,04,19,02,51,8.70
2010,04,19,02,52,8.70
2010,04,19,02,53,8.70
2010,04,19,02,54,8.70
2010,04,19,02,55,8.70
2010,04,19,02,56,8.70
2010,04,19,02,57,8.70
2010,04,19,02,58,8.70
2010,04,19,02,59,8.70
2010,04,19,03,00,8.70
2010,04,19,03,01,8.70
2010,04,19,03,02,8.70
2010,04,19,03,03,8.70
2010,04,19,03,04,8.70
2010,04,19,03,05,8.70
2010,04,19,03,06,8.60
2010,04,19,03,07,8.60
2010,04,19,03,08,8.60
2010,04,19,03,09,8.60
2010,04,19,03,10,8.60
2010,04,19,03,11,8.60
2010,04,19,03,12,8.60
2010,04,19,03,13,8.60
2010,04,19,03,14,8.60
2010,04,19,03,15,8.60
2010,04,19,03,16,8.60
2010,04,19,03,17,8.60
2010,04,19,03,18,8.60
2010,04,19,03,19,8.60
2010,04,19,03,20,8.60
2010,04,19,03,21,8.60
2010,04,19,03,22,8.60
2010,04,19,03,23,8.60
2010,04,19,03,24,8.60
2010,04,19,03,25,8.60
2010,04,19,03,26,8.60
2010,04,19,03,27,8.60
2010,04,19,03,28,8.60
2010,04,19,03,29,8.60
2010,04,19,03,30,8.50
2010,04,19,03,31,8.50
2010,04,19,03,32,8.50
2010,04,19,03,33,8.60
2010,04,19,03,34,8.60
2010,04,19,03,35,8.60
2010,04,19,03,36,8.60
2010,04,19,03,37,8.60
2010,04,19,03,38,8.60
2010,04,19,03,39,8.60
2010,04,19,03,40,8.60
2010,04,19,03,41,8.60
2010,04,19,03,42,8.60
2010,04,19,03,43,8.60
2010,04,19,03,44,8.60
2010,04,19,03,45,8.60
2010,04,19,03,46,8.60
2010,04,19,03,47,8.60
2010,04,19,03,48,8.60
2010,04,19,03,49,8.60
2010,04,19,03,50,8.60
2010,04,19,03,51,8.60
2010,04,19,03,52,8.60
2010,04,19,03,53,8.60
2010,04,19,03,54,8.60
2010,04,19,03,55,8.60
2010,04,19,03,56,8.60
2010,04,19,03,57,8.60
2010,04,19,03,58,8.50
2010,04,19,03,59,8.50
2010,04,19,04,00,8.50
2010,04,19,04,01,8.50
2010,04,19,04,02,8.50
2010,04,19,04,03,8.50
2010,04,19,04,04,8.50
2010,04,19,04,05,8.50
2010,04,19,04,06,8.50
2010,04,19,04,07,8.50
2010,04,19,04,08,8.50
2010,04,19,04,09,8.50
2010,04,19,04,10,8.50
2010,04,19,04,11,8.50
2010,04,19,04,12,8.50
2010,04,19,04,13,8.50
2010,04,19,04,14,8.50
2010,04,19,04,15,8.50
2010,04,19,04,16,8.50
2010,04,19,04,17,8.50
2010,04,19,04,18,8.50
2010,04,19,04,19,8.60
2010,04,19,04,20,8.60
2010,04,19,04,21,8.60
2010,04,19,04,22,8.60
2010,04,19,04,23,8.60
2010,04,19,04,24,8.60
2010,04,19,04,25,8.60
2010,04,19,04,26,8.60
2010,04,19,04,27,8.60
2010,04,19,04,28,8.60
2010,04,19,04,29,8.60
2010,04,19,04,30,8.60
2010,04,19,04,31,8.60
2010,04,19,04,32,8.60
2010,04,19,04,33,8.60
2010,04,19,04,34,8.60
2010,04,19,04,35,8.60
2010,04,19,04,36,8.60
2010,04,19,04,37,8.60
2010,04,19,04,38,8.60
2010,04,19,04,39,8.60
2010,04,19,04,40,8.60
2010,04,19,04,41,8.60
2010,04,19,04,42,8.70
2010,04,19,04,43,8.70
2010,04,19,04,44,8.70
2010,04,19,04,45,8.70
2010,04,19,04,46,8.70
2010,04,19,04,47,8.70
2010,04,19,04,48,8.70
2010,04,19,04,49,8.70
2010,04,19,04,50,8.70
2010,04,19,04,51,8.70
2010,04,19,04,52,8.70
2010,04,19,04,53,8.70
2010,04,19,04,54,8.70
2010,04,19,04,55,8.70
2010,04,19,04,56,8.70
2010,04,19,04,57,8.70
2010,04,19,04,58,8.70
2010,04,19,04,59,8.70
2010,04,19,05,00,8.70
2010,04,19,05,01,8.70
2010,04,19,05,02,8.70
2010,04,19,05,03,8.70
2010,04,19,05,04,8.70
2010,04,19,05,05,8.70
2010,04,19,05,06,8.70
2010,04,19,05,07,8.70
2010,04,19,05,08,8.70
2010,04,19,05,09,8.70
2010,04,19,05,10,8.70
2010,04,19,05,11,8.70
2010,04,19,05,12,8.70
2010,04,19,05,13,8.70
2010,04,19,05,14,8.70
2010,04,19,05,15,8.70
2010,04,19,05,16,8.60
2010,04,19,05,17,8.60
2010,04,19,05,18,8.60
2010,04,19,05,19,8.60
2010,04,19,05,20,8.60
2010,04,19,05,21,8.70
2010,04,19,05,22,8.70
2010,04,19,05,23,8.70
2010,04,19,05,24,8.70
2010,04,19,05,25,8.80
2010,04,19,05,26,8.80
2010,04,19,05,27,8.80
2010,04,19,05,28,8.80
2010,04,19,05,29,8.80
2010,04,19,05,30,8.90
2010,04,19,05,31,8.90
2010,04,19,05,32,8.90
2010,04,19,05,33,8.90
2010,04,19,05,34,8.90
2010,04,19,05,35,8.90
2010,04,19,05,36,8.90
2010,04,19,05,37,9.00
2010,04,19,05,38,9.00
2010,04,19,05,39,9.00
2010,04,19,05,40,9.00
2010,04,19,05,41,9.00
2010,04,19,05,42,8.90
2010,04,19,05,43,8.90
2010,04,19,05,44,8.90
2010,04,19,05,45,8.90
2010,04,19,05,46,8.90
2010,04,19,05,47,8.90
2010,04,19,05,48,9.00
2010,04,19,05,49,9.00
2010,04,19,05,50,9.00
2010,04,19,05,51,9.00
2010,04,19,05,52,9.00
2010,04,19,05,53,9.10
2010,04,19,05,54,9.10
2010,04,19,05,55,9.10
2010,04,19,05,56,9.10
2010,04,19,05,57,9.10
2010,04,19,05,58,9.10
2010,04,19,05,59,9.10
2010,04,19,06,00,9.10
2010,04,19,06,01,9.10
2010,04,19,06,02,9.10
2010,04,19,06,03,9.20
2010,04,19,06,04,9.20
2010,04,19,06,05,9.20
2010,04,19,06,06,9.20
2010,04,19,06,07,9.30
2010,04,19,06,08,9.30
2010,04,19,06,09,9.30
2010,04,19,06,10,9.30
2010,04,19,06,11,9.30
2010,04,19,06,12,9.30
2010,04,19,06,13,9.30
2010,04,19,06,14,9.30
2010,04,19,06,15,9.30
2010,04,19,06,16,9.40
2010,04,19,06,17,9.40
2010,04,19,06,18,9.50
2010,04,19,06,19,9.50
2010,04,19,06,20,9.50
2010,04,19,06,21,9.50
2010,04,19,06,22,9.50
2010,04,19,06,23,9.50
2010,04,19,06,24,9.40
2010,04,19,06,25,9.40
2010,04,19,06,26,9.50
2010,04,19,06,27,9.50
2010,04,19,06,28,9.60
2010,04,19,06,29,9.60
2010,04,19,06,30,9.60
2010,04,19,06,31,9.60
2010,04,19,06,32,9.60
2010,04,19,06,33,9.70
2010,04,19,06,34,9.70
2010,04,19,06,35,9.70
2010,04,19,06,36,9.70
2010,04,19,06,37,9.70
2010,04,19,06,38,9.70
2010,04,19,06,39,9.70
2010,04,19,06,40,9.70
2010,04,19,06,41,9.80
2010,04,19,06,42,9.80
2010,04,19,06,43,9.80
2010,04,19,06,44,9.90
2010,04,19,06,45,10.00
2010,04,19,06,46,10.00
2010,04,19,06,47,10.10
2010,04,19,06,48,10.10
2010,04,19,06,49,10.20
2010,04,19,06,50,10.20
2010,04,19,06,51,10.30
2010,04,19,06,52,10.30
2010,04,19,06,53,10.30
2010,04,19,06,54,10.30
2010,04,19,06,55,10.30
2010,04,19,06,56,10.30
2010,04,19,06,57,10.30
2010,04,19,06,58,10.30
2010,04,19,06,59,10.30
2010,04,19,07,00,10.20
2010,04,19,07,01,10.20
2010,04,19,07,02,10.20
2010,04,19,07,03,10.30
2010,04,19,07,04,10.30
2010,04,19,07,05,10.30
2010,04,19,07,06,10.30
2010,04,19,07,07,10.30
2010,04,19,07,08,10.30
2010,04,19,07,09,10.30
2010,04,19,07,10,10.20
2010,04,19,07,11,10.20
2010,04,19,07,12,10.10
2010,04,19,07,13,10.10
2010,04,19,07,14,10.10
2010,04,19,07,15,10.10
2010,04,19,07,16,10.10
2010,04,19,07,17,10.10
2010,04,19,07,18,10.00
2010,04,19,07,19,10.10
2010,04,19,07,20,10.10
2010,04,19,07,21,10.00
2010,04,19,07,22,10.10
2010,04,19,07,23,10.00
2010,04,19,07,24,10.00
2010,04,19,07,25,10.00
2010,04,19,07,26,10.10
2010,04,19,07,27,10.10
2010,04,19,07,28,10.10
2010,04,19,07,29,10.10
2010,04,19,07,30,10.20
2010,04,19,07,31,10.20
2010,04,19,07,32,10.20
2010,04,19,07,33,10.20
2010,04,19,07,34,10.20
2010,04,19,07,35,10.30
2010,04,19,07,36,10.30
2010,04,19,07,37,10.30
2010,04,19,07,38,10.30
2010,04,19,07,39,10.30
2010,04,19,07,40,10.30
2010,04,19,07,41,10.30
2010,04,19,07,42,10.40
2010,04,19,07,43,10.40
2010,04,19,07,44,10.40
2010,04,19,07,45,10.40
2010,04,19,07,46,10.50
2010,04,19,07,47,10.50
2010,04,19,07,48,10.50
2010,04,19,07,49,10.60
2010,04,19,07,50,10.60
2010,04,19,07,51,10.60
2010,04,19,07,52,10.60
2010,04,19,07,53,10.60
2010,04,19,07,54,10.60
2010,04,19,07,55,10.60
2010,04,19,07,56,10.60
2010,04,19,07,57,10.60
2010,04,19,07,58,10.70
2010,04,19,07,59,10.70
2010,04,19,08,00,10.70
2010,04,19,08,01,10.70
2010,04,19,08,02,10.70
2010,04,19,08,03,10.70
2010,04,19,08,04,10.70
2010,04,19,08,05,10.70
2010,04,19,08,06,10.60
2010,04,19,08,07,10.70
2010,04,19,08,08,10.70
2010,04,19,08,09,10.70
2010,04,19,08,10,10.70
2010,04,19,08,11,10.70
2010,04,19,08,12,10.80
2010,04,19,08,13,10.80
2010,04,19,08,14,10.80
2010,04,19,08,15,10.80
2010,04,19,08,16,10.80
2010,04,19,08,17,10.90
2010,04,19,08,18,10.90
2010,04,19,08,19,10.90
2010,04,19,08,20,10.90
2010,04,19,08,21,10.90
2010,04,19,08,22,11.00
2010,04,19,08,23,11.10
2010,04,19,08,24,11.10
2010,04,19,08,25,11.10
2010,04,19,08,26,11.20
2010,04,19,08,27,11.20
2010,04,19,08,28,11.20
2010,04,19,08,29,11.20
2010,04,19,08,30,11.20
2010,04,19,08,31,11.20
2010,04,19,08,32,11.30
2010,04,19,08,33,11.30
2010,04,19,08,34,11.30
2010,04,19,08,35,11.30
2010,04,19,08,36,11.40
2010,04,19,08,37,11.40
2010,04,19,08,38,11.40
2010,04,19,08,39,11.40
2010,04,19,08,40,11.50
2010,04,19,08,41,11.50
2010,04,19,08,42,11.50
2010,04,19,08,43,11.50
2010,04,19,08,44,11.60
2010,04,19,08,45,11.60
2010,04,19,08,46,11.60
2010,04,19,08,47,11.70
2010,04,19,08,48,11.70
2010,04,19,08,49,11.70
2010,04,19,08,50,11.80
2010,04,19,08,51,11.80
2010,04,19,08,52,11.80
2010,04,19,08,53,11.80
2010,04,19,08,54,11.70
2010,04,19,08,55,11.70
2010,04,19,08,56,11.70
2010,04,19,08,57,11.70
2010,04,19,08,58,11.70
2010,04,19,08,59,11.70
2010,04,19,09,00,11.70
2010,04,19,09,01,11.70
2010,04,19,09,02,11.70
2010,04,19,09,03,11.70
2010,04,19,09,04,11.70
2010,04,19,09,05,11.70
2010,04,19,09,06,11.80
2010,04,19,09,07,11.80
2010,04,19,09,08,11.80
2010,04,19,09,09,11.80
2010,04,19,09,10,11.80
2010,04,19,09,11,11.90
2010,04,19,09,12,11.90
2010,04,19,09,13,11.90
2010,04,19,09,14,11.90
2010,04,19,09,15,11.90
2010,04,19,09,16,11.90
2010,04,19,09,17,11.90
2010,04,19,09,18,11.90
2010,04,19,09,19,12.00
2010,04,19,09,20,12.00
2010,04,19,09,21,12.00
2010,04,19,09,22,12.00
2010,04,19,09,23,12.00
2010,04,19,09,24,12.00
2010,04,19,09,25,12.00
2010,04,19,09,26,12.10
2010,04,19,09,27,12.10
2010,04,19,09,28,12.10
2010,04,19,09,29,12.10
2010,04,19,09,30,12.10
2010,04,19,09,31,12.10
2010,04,19,09,32,12.10
2010,04,19,09,33,12.10
2010,04,19,09,34,12.20
2010,04,19,09,35,12.20
2010,04,19,09,36,12.20
2010,04,19,09,37,12.20
2010,04,19,09,38,12.20
2010,04,19,09,39,12.30
2010,04,19,09,40,12.30
2010,04,19,09,41,12.30
2010,04,19,09,42,12.30
2010,04,19,09,43,12.30
2010,04,19,09,44,12.30
2010,04,19,09,45,12.30
2010,04,19,09,46,12.30
2010,04,19,09,47,12.30
2010,04,19,09,48,12.30
2010,04,19,09,49,12.40
2010,04,19,09,50,12.40
2010,04,19,09,51,12.40
2010,04,19,09,52,12.40
2010,04,19,09,53,12.40
2010,04,19,09,54,12.40
2010,04,19,09,55,12.50
2010,04,19,09,56,12.50
2010,04,19,09,57,12.50
2010,04,19,09,58,12.60
2010,04,19,09,59,12.60
2010,04,19,10,00,12.60
2010,04,19,10,01,12.60
2010,04,19,10,02,12.60
2010,04,19,10,03,12.60
2010,04,19,10,04,12.70
2010,04,19,10,05,12.70
2010,04,19,10,06,12.70
2010,04,19,10,07,12.80
2010,04,19,10,08,12.80
2010,04,19,10,09,12.80
2010,04,19,10,10,12.80
2010,04,19,10,11,12.90
2010,04,19,10,12,12.90
2010,04,19,10,13,13.00
2010,04,19,10,14,13.00
2010,04,19,10,15,13.10
2010,04,19,10,16,13.10
2010,04,19,10,17,13.20
2010,04,19,10,18,13.20
2010,04,19,10,19,13.30
2010,04,19,10,20,13.30
2010,04,19,10,21,13.40
2010,04,19,10,22,13.40
2010,04,19,10,23,13.50
2010,04,19,10,24,13.50
2010,04,19,10,25,13.60
2010,04,19,10,26,13.60
2010,04,19,10,27,13.70
2010,04,19,10,28,13.70
2010,04,19,10,29,13.70
2010,04,19,10,30,13.80
2010,04,19,10,31,13.80
2010,04,19,10,32,13.90
2010,04,19,10,33,14.00
2010,04,19,10,34,14.00
2010,04,19,10,35,14.10
2010,04,19,10,36,14.10
2010,04,19,10,37,14.20
2010,04,19,10,38,14.20
2010,04,19,10,39,14.30
2010,04,19,10,40,14.30
2010,04,19,10,41,14.30
2010,04,19,10,42,14.40
2010,04,19,10,43,14.40
2010,04,19,10,44,14.40
2010,04,19,10,45,14.40
2010,04,19,10,46,14.40
2010,04,19,10,47,14.40
2010,04,19,10,48,14.30
2010,04,19,10,49,14.30
2010,04,19,10,50,14.30
2010,04,19,10,51,14.30
2010,04,19,10,52,14.30
2010,04,19,10,53,14.40
2010,04,19,10,54,14.40
2010,04,19,10,55,14.40
2010,04,19,10,56,14.50
2010,04,19,10,57,14.50
2010,04,19,10,58,14.60
2010,04,19,10,59,14.60
2010,04,19,11,00,14.70
2010,04,19,11,01,14.70
2010,04,19,11,02,14.80
2010,04,19,11,03,14.80
2010,04,19,11,04,14.90
2010,04,19,11,05,15.00
2010,04,19,11,06,15.00
2010,04,19,11,07,15.00
2010,04,19,11,08,15.00
2010,04,19,11,09,15.00
2010,04,19,11,10,15.00
2010,04,19,11,11,15.00
2010,04,19,11,12,15.00
2010,04,19,11,13,15.10
2010,04,19,11,14,15.20
2010,04,19,11,15,15.20
2010,04,19,11,16,15.20
2010,04,19,11,17,15.30
2010,04,19,11,18,15.30
2010,04,19,11,19,15.30
2010,04,19,11,20,15.40
2010,04,19,11,21,15.40
2010,04,19,11,22,15.50
2010,04,19,11,23,15.60
2010,04,19,11,24,15.60
2010,04,19,11,25,15.70
2010,04,19,11,26,15.70
2010,04,19,11,27,15.80
2010,04,19,11,28,15.80
2010,04,19,11,29,15.80
2010,04,19,11,30,15.80
2010,04,19,11,31,15.80
2010,04,19,11,32,15.70
2010,04,19,11,33,15.70
2010,04,19,11,34,15.70
2010,04,19,11,35,15.60
2010,04,19,11,36,15.60
2010,04,19,11,37,15.60
2010,04,19,11,38,15.50
2010,04,19,11,39,15.60
2010,04,19,11,40,15.50
2010,04,19,11,41,15.50
2010,04,19,11,42,15.50
2010,04,19,11,43,15.50
2010,04,19,11,44,15.50
2010,04,19,11,45,15.50
2010,04,19,11,46,15.50
2010,04,19,11,47,15.60
2010,04,19,11,48,15.50
2010,04,19,11,49,15.50
2010,04,19,11,50,15.50
2010,04,19,11,51,15.50
2010,04,19,11,52,15.50
2010,04,19,11,53,15.50
2010,04,19,11,54,15.50
2010,04,19,11,55,15.50
2010,04,19,11,56,15.50
2010,04,19,11,57,15.50
2010,04,19,11,58,15.60
2010,04,19,11,59,15.60
2010,04,19,12,00,15.70
2010,04,19,12,01,15.70
2010,04,19,12,02,15.70
2010,04,19,12,03,15.80
2010,04,19,12,04,15.80
2010,04,19,12,05,15.80
2010,04,19,12,06,15.90
2010,04,19,12,07,15.90
2010,04,19,12,08,16.00
2010,04,19,12,09,16.00
2010,04,19,12,10,16.10
2010,04,19,12,11,16.10
2010,04,19,12,12,16.10
2010,04,19,12,13,16.20
2010,04,19,12,14,16.20
2010,04,19,12,15,16.20
2010,04,19,12,16,16.30
2010,04,19,12,17,16.30
2010,04,19,12,18,16.30
2010,04,19,12,19,16.30
2010,04,19,12,20,16.40
2010,04,19,12,21,16.40
2010,04,19,12,22,16.50
2010,04,19,12,23,16.50
2010,04,19,12,24,16.50
2010,04,19,12,25,16.50
2010,04,19,12,26,16.60
2010,04,19,12,27,16.60
2010,04,19,12,28,16.60
2010,04,19,12,29,16.60
2010,04,19,12,30,16.60
2010,04,19,12,31,16.60
2010,04,19,12,32,16.60
2010,04,19,12,33,16.60
2010,04,19,12,34,16.60
2010,04,19,12,35,16.60
2010,04,19,12,36,16.60
2010,04,19,12,37,16.60
2010,04,19,12,38,16.70
2010,04,19,12,39,16.70
2010,04,19,12,40,16.70
2010,04,19,12,41,16.70
2010,04,19,12,42,16.70
2010,04,19,12,43,16.70
2010,04,19,12,44,16.70
2010,04,19,12,45,16.70
2010,04,19,12,46,16.80
2010,04,19,12,47,16.80
2010,04,19,12,48,16.80
2010,04,19,12,49,16.80
2010,04,19,12,50,16.80
2010,04,19,12,51,16.80
2010,04,19,12,52,16.90
2010,04,19,12,53,16.90
2010,04,19,12,54,17.00
2010,04,19,12,55,17.10
2010,04,19,12,56,17.10
2010,04,19,12,57,17.20
2010,04,19,12,58,17.20
2010,04,19,12,59,17.30
2010,04,19,13,00,17.30
2010,04,19,13,01,17.30
2010,04,19,13,02,17.30
2010,04,19,13,03,17.30
2010,04,19,13,04,17.30
2010,04,19,13,05,17.40
2010,04,19,13,06,17.40
2010,04,19,13,07,17.50
2010,04,19,13,08,17.60
2010,04,19,13,09,17.60
2010,04,19,13,10,17.70
2010,04,19,13,11,17.70
2010,04,19,13,12,17.80
2010,04,19,13,13,17.90
2010,04,19,13,14,17.90
2010,04,19,13,15,18.00
2010,04,19,13,16,18.00
2010,04,19,13,17,18.10
2010,04,19,13,18,18.10
2010,04,19,13,19,18.10
2010,04,19,13,20,18.20
2010,04,19,13,21,18.30
2010,04,19,13,22,18.40
2010,04,19,13,23,18.40
2010,04,19,13,24,18.50
2010,04,19,13,25,18.50
2010,04,19,13,26,18.60
2010,04,19,13,27,18.60
2010,04,19,13,28,18.70
2010,04,19,13,29,18.80
2010,04,19,13,30,18.80
2010,04,19,13,31,18.80
2010,04,19,13,32,18.80
2010,04,19,13,33,18.70
2010,04,19,13,34,18.70
2010,04,19,13,35,18.70
2010,04,19,13,36,18.70
2010,04,19,13,37,18.70
2010,04,19,13,38,18.70
2010,04,19,13,39,18.70
2010,04,19,13,40,18.70
2010,04,19,13,41,18.60
2010,04,19,13,42,18.50
2010,04,19,13,43,18.50
2010,04,19,13,44,18.40
2010,04,19,13,45,18.40
2010,04,19,13,46,18.40
2010,04,19,13,47,18.40
2010,04,19,13,48,18.50
2010,04,19,13,49,18.60
2010,04,19,13,50,18.60
2010,04,19,13,51,18.70
2010,04,19,13,52,18.80
2010,04,19,13,53,18.80
2010,04,19,13,54,18.80
2010,04,19,13,55,18.90
2010,04,19,13,56,19.00
2010,04,19,13,57,19.00
2010,04,19,13,58,19.00
2010,04,19,13,59,19.10
2010,04,19,14,00,19.10
2010,04,19,14,01,19.10
2010,04,19,14,02,19.10
2010,04,19,14,03,19.10
2010,04,19,14,04,19.10
2010,04,19,14,05,19.20
2010,04,19,14,06,19.30
2010,04,19,14,07,19.30
2010,04,19,14,08,19.30
2010,04,19,14,09,19.40
2010,04,19,14,10,19.40
2010,04,19,14,11,19.30
2010,04,19,14,12,19.20
2010,04,19,14,13,19.20
2010,04,19,14,14,19.30
2010,04,19,14,15,19.30
2010,04,19,14,16,19.30
2010,04,19,14,17,19.40
2010,04,19,14,18,19.50
2010,04,19,14,19,19.60
2010,04,19,14,20,19.60
2010,04,19,14,21,19.60
2010,04,19,14,22,19.60
2010,04,19,14,23,19.60
2010,04,19,14,24,19.50
2010,04,19,14,25,19.50
2010,04,19,14,26,19.40
2010,04,19,14,27,19.30
2010,04,19,14,28,19.20
2010,04,19,14,29,19.10
2010,04,19,14,30,19.00
2010,04,19,14,31,19.00
2010,04,19,14,32,18.90
2010,04,19,14,33,18.90
2010,04,19,14,34,18.90
2010,04,19,14,35,18.90
2010,04,19,14,36,18.90
2010,04,19,14,37,19.00
2010,04,19,14,38,19.00
2010,04,19,14,39,19.10
2010,04,19,14,40,19.30
2010,04,19,14,41,19.40
2010,04,19,14,42,19.50
2010,04,19,14,43,19.60
2010,04,19,14,44,19.80
2010,04,19,14,45,19.90
2010,04,19,14,46,20.10
2010,04,19,14,47,20.20
2010,04,19,14,48,20.30
2010,04,19,14,49,20.40
2010,04,19,14,50,20.40
2010,04,19,14,51,20.50
2010,04,19,14,52,20.50
2010,04,19,14,53,20.50
2010,04,19,14,54,20.50
2010,04,19,14,55,20.50
2010,04,19,14,56,20.40
2010,04,19,14,57,20.30
2010,04,19,14,58,20.30
2010,04,19,14,59,20.30
2010,04,19,15,00,20.30
2010,04,19,15,01,20.30
2010,04,19,15,02,20.40
2010,04,19,15,03,20.30
2010,04,19,15,04,20.30
2010,04,19,15,05,20.30
2010,04,19,15,06,20.30
2010,04,19,15,07,20.30
2010,04,19,15,08,20.30
2010,04,19,15,09,20.20
2010,04,19,15,10,20.20
2010,04,19,15,11,20.20
2010,04,19,15,12,20.20
2010,04,19,15,13,20.20
2010,04,19,15,14,20.20
2010,04,19,15,15,20.20
2010,04,19,15,16,20.20
2010,04,19,15,17,20.20
2010,04,19,15,18,20.20
2010,04,19,15,19,20.30
2010,04,19,15,20,20.30
2010,04,19,15,21,20.30
2010,04,19,15,22,20.40
2010,04,19,15,23,20.50
2010,04,19,15,24,20.50
2010,04,19,15,25,20.50
2010,04,19,15,26,20.50
2010,04,19,15,27,20.50
2010,04,19,15,28,20.40
2010,04,19,15,29,20.30
2010,04,19,15,30,20.20
2010,04,19,15,31,20.20
2010,04,19,15,32,20.20
2010,04,19,15,33,20.10
2010,04,19,15,34,20.10
2010,04,19,15,35,20.10
2010,04,19,15,36,20.10
2010,04,19,15,37,20.10
2010,04,19,15,38,20.10
2010,04,19,15,39,20.10
2010,04,19,15,40,20.00
2010,04,19,15,41,20.00
2010,04,19,15,42,20.00
2010,04,19,15,43,20.00
2010,04,19,15,44,19.90
2010,04,19,15,45,19.90
2010,04,19,15,46,19.90
2010,04,19,15,47,19.90
2010,04,19,15,48,19.90
2010,04,19,15,49,19.90
2010,04,19,15,50,19.80
2010,04,19,15,51,19.70
2010,04,19,15,52,19.70
2010,04,19,15,53,19.60
2010,04,19,15,54,19.50
2010,04,19,15,55,19.40
2010,04,19,15,56,19.30
2010,04,19,15,57,19.30
2010,04,19,15,58,19.30
2010,04,19,15,59,19.20
2010,04,19,16,00,19.20
2010,04,19,16,01,19.20
2010,04,19,16,02,19.10
2010,04,19,16,03,19.10
2010,04,19,16,04,19.00
2010,04,19,16,05,19.00
2010,04,19,16,06,18.90
2010,04,19,16,07,18.90
2010,04,19,16,08,18.90
2010,04,19,16,09,18.80
2010,04,19,16,10,18.80
2010,04,19,16,11,18.70
2010,04,19,16,12,18.70
2010,04,19,16,13,18.60
2010,04,19,16,14,18.60
2010,04,19,16,15,18.50
2010,04,19,16,16,18.40
2010,04,19,16,17,18.40
2010,04,19,16,18,18.40
2010,04,19,16,19,18.50
2010,04,19,16,20,18.50
2010,04,19,16,21,18.50
2010,04,19,16,22,18.50
2010,04,19,16,23,18.50
2010,04,19,16,24,18.50
2010,04,19,16,25,18.50
2010,04,19,16,26,18.50
2010,04,19,16,27,18.50
2010,04,19,16,28,18.50
2010,04,19,16,29,18.50
2010,04,19,16,30,18.50
2010,04,19,16,31,18.50
2010,04,19,16,32,18.50
2010,04,19,16,33,18.30
2010,04,19,16,34,18.30
2010,04,19,16,35,18.20
2010,04,19,16,36,18.20
2010,04,19,16,37,18.20
2010,04,19,16,38,18.20
2010,04,19,16,39,18.20
2010,04,19,16,40,18.20
2010,04,19,16,41,18.10
2010,04,19,16,42,18.10
2010,04,19,16,43,18.10
2010,04,19,16,44,18.10
2010,04,19,16,45,18.10
2010,04,19,16,46,18.10
2010,04,19,16,47,18.10
2010,04,19,16,48,18.10
2010,04,19,16,49,18.10
2010,04,19,16,50,18.20
2010,04,19,16,51,18.20
2010,04,19,16,52,18.20
2010,04,19,16,53,18.20
2010,04,19,16,54,18.20
2010,04,19,16,55,18.20
2010,04,19,16,56,18.20
2010,04,19,16,57,18.20
2010,04,19,16,58,18.20
2010,04,19,16,59,18.20
2010,04,19,17,00,18.20
2010,04,19,17,01,18.20
2010,04,19,17,02,18.20
2010,04,19,17,03,18.20
2010,04,19,17,04,18.20
2010,04,19,17,05,18.20
2010,04,19,17,06,18.20
2010,04,19,17,07,18.20
2010,04,19,17,08,18.20
2010,04,19,17,09,18.20
2010,04,19,17,10,18.20
2010,04,19,17,11,18.20
2010,04,19,17,12,18.20
2010,04,19,17,13,18.20
2010,04,19,17,14,18.20
2010,04,19,17,15,18.20
2010,04,19,17,16,18.20
2010,04,19,17,17,18.20
2010,04,19,17,18,18.20
2010,04,19,17,19,18.20
2010,04,19,17,20,18.20
2010,04,19,17,21,18.20
2010,04,19,17,22,18.20
2010,04,19,17,23,18.10
2010,04,19,17,24,18.10
2010,04,19,17,25,18.10
2010,04,19,17,26,18.00
2010,04,19,17,27,18.00
2010,04,19,17,28,18.00
2010,04,19,17,29,17.90
2010,04,19,17,30,17.90
2010,04,19,17,31,17.80
2010,04,19,17,32,17.80
2010,04,19,17,33,17.80
2010,04,19,17,34,17.80
2010,04,19,17,35,17.80
2010,04,19,17,36,17.80
2010,04,19,17,37,17.80